Time,TemperatureF,DewpointF,PressureIn,WindDirection,WindDirectionDegrees,WindSpeedMPH,WindSpeedGustMPH,Humidity,HourlyPrecipIn,Conditions,Clouds,dailyrainin,SolarRadiationWatts/m^2,SoftwareType,DateUTC
2013-05-08 00:02:00,47.0,46.0,29.88,South,177,1.0,1.0,98,0.00,,,0.00,0.000000,,2013-05-08 04:02:00,
2013-05-08 00:10:00,47.0,46.0,29.87,SW,216,1.0,1.0,97,0.00,,,0.00,0.000000,,2013-05-08 04:10:00,
2013-05-08 00:43:00,47.0,46.0,29.87,SW,216,1.0,1.0,97,0.00,,,0.00,0.000000,,2013-05-08 04:43:00,
2013-05-08 00:53:00,47.0,46.0,29.87,SW,216,1.0,1.0,97,0.00,,,0.00,0.000000,,2013-05-08 04:53:00,
2013-05-08 01:02:00,47.0,46.0,29.87,SW,216,1.0,1.0,97,0.00,,,0.00,0.000000,,2013-05-08 05:02:00,
2013-05-08 01:10:00,48.0,47.0,29.87,ESE,103,1.0,1.0,97,0.00,,,0.00,0.000000,,2013-05-08 05:10:00,
2013-05-08 01:32:00,48.0,47.0,29.87,ESE,103,1.0,1.0,97,0.00,,,0.00,0.000000,,2013-05-08 05:32:00,
2013-05-08 01:42:00,48.0,47.0,29.87,ESE,103,1.0,1.0,97,0.00,,,0.00,0.000000,,2013-05-08 05:42:00,
2013-05-08 01:52:00,48.0,47.0,29.87,ESE,103,1.0,1.0,97,0.00,,,0.00,0.000000,,2013-05-08 05:52:00,
2013-05-08 02:02:00,48.0,47.0,29.87,ESE,103,1.0,1.0,97,0.00,,,0.00,0.000000,,2013-05-08 06:02:00,
2013-05-08 02:10:00,49.0,48.0,29.86,ESE,105,1.0,1.0,97,0.00,,,0.00,0.000000,,2013-05-08 06:10:00,
2013-05-08 02:42:00,49.0,48.0,29.86,ESE,105,1.0,1.0,97,0.00,,,0.00,0.000000,,2013-05-08 06:42:00,
2013-05-08 02:52:00,49.0,48.0,29.86,ESE,105,1.0,1.0,97,0.00,,,0.00,0.000000,,2013-05-08 06:52:00,
2013-05-08 03:02:00,49.0,48.0,29.86,ESE,105,1.0,1.0,97,0.00,,,0.00,0.000000,,2013-05-08 07:02:00,
2013-05-08 03:10:00,48.0,47.0,29.85,East,79,1.0,1.0,97,0.00,,,0.00,0.000000,,2013-05-08 07:10:00,
2013-05-08 03:42:00,48.0,47.0,29.85,East,79,1.0,1.0,97,0.00,,,0.00,0.000000,,2013-05-08 07:42:00,
2013-05-08 03:52:00,48.0,47.0,29.85,East,79,1.0,1.0,97,0.00,,,0.00,0.000000,,2013-05-08 07:52:00,
2013-05-08 04:02:00,48.0,47.0,29.85,East,79,1.0,1.0,97,0.00,,,0.00,0.000000,,2013-05-08 08:02:00,
2013-05-08 04:10:00,44.0,44.0,29.85,North,351,1.0,1.0,99,0.00,,,0.00,0.000000,,2013-05-08 08:10:00,
2013-05-08 04:32:00,44.0,44.0,29.85,North,351,1.0,1.0,99,0.00,,,0.00,0.000000,,2013-05-08 08:32:00,
2013-05-08 04:43:00,44.0,44.0,29.85,North,351,1.0,1.0,99,0.00,,,0.00,0.000000,,2013-05-08 08:43:00,
2013-05-08 04:52:00,44.0,44.0,29.85,North,351,1.0,1.0,99,0.00,,,0.00,0.000000,,2013-05-08 08:52:00,
2013-05-08 05:02:00,44.0,44.0,29.85,North,351,1.0,1.0,99,0.00,,,0.00,0.000000,,2013-05-08 09:02:00,
2013-05-08 05:10:00,43.0,43.0,29.85,East,96,1.0,1.0,99,0.00,,,0.00,0.000000,,2013-05-08 09:10:00,
2013-05-08 05:42:00,43.0,43.0,29.85,East,96,1.0,1.0,99,0.00,,,0.00,0.000000,,2013-05-08 09:42:00,
2013-05-08 05:53:00,43.0,43.0,29.85,East,96,1.0,1.0,99,0.00,,,0.00,0.000000,,2013-05-08 09:53:00,
2013-05-08 06:02:00,43.0,43.0,29.85,East,96,1.0,1.0,99,0.00,,,0.00,0.000000,,2013-05-08 10:02:00,
2013-05-08 06:10:00,43.0,43.0,29.86,SSE,154,1.0,1.0,100,0.00,,,0.00,0.000000,,2013-05-08 10:10:00,
2013-05-08 06:33:00,43.0,43.0,29.86,SSE,154,1.0,1.0,100,0.00,,,0.00,0.000000,,2013-05-08 10:33:00,
2013-05-08 06:42:00,43.0,43.0,29.86,SSE,154,1.0,1.0,100,0.00,,,0.00,0.000000,,2013-05-08 10:42:00,
2013-05-08 06:53:00,43.0,43.0,29.86,SSE,154,1.0,1.0,100,0.00,,,0.00,0.000000,,2013-05-08 10:53:00,
2013-05-08 07:02:00,43.0,43.0,29.86,SSE,154,1.0,1.0,100,0.00,,,0.00,0.000000,,2013-05-08 11:02:00,
2013-05-08 07:10:00,42.0,42.0,29.89,South,173,1.0,1.0,100,0.00,,,0.00,0.000000,,2013-05-08 11:10:00,
2013-05-08 07:42:00,42.0,42.0,29.89,South,173,1.0,1.0,100,0.00,,,0.00,0.000000,,2013-05-08 11:42:00,
2013-05-08 07:52:00,42.0,42.0,29.89,South,173,1.0,1.0,100,0.00,,,0.00,0.000000,,2013-05-08 11:52:00,
2013-05-08 08:02:00,42.0,42.0,29.89,South,173,1.0,1.0,100,0.00,,,0.00,0.000000,,2013-05-08 12:02:00,
2013-05-08 09:10:00,63.0,52.0,29.90,NNW,341,2.0,2.0,67,-99.99,,,0.00,107.000000,,2013-05-08 13:10:00,
2013-05-08 09:32:00,63.0,52.0,29.90,NNW,341,2.0,2.0,67,-99.99,,,0.00,107.000000,,2013-05-08 13:32:00,
2013-05-08 09:42:00,63.0,52.0,29.90,NNW,341,2.0,2.0,67,-99.99,,,0.00,107.000000,,2013-05-08 13:42:00,
2013-05-08 09:52:00,63.0,52.0,29.90,NNW,341,2.0,2.0,67,-99.99,,,0.00,107.000000,,2013-05-08 13:52:00,
2013-05-08 10:02:00,63.0,52.0,29.90,NNW,341,2.0,2.0,67,-99.99,,,0.00,107.000000,,2013-05-08 14:02:00,
2013-05-08 10:10:00,64.0,48.0,29.92,SW,219,3.0,3.0,56,0.00,,,0.00,443.000000,,2013-05-08 14:10:00,
2013-05-08 10:42:00,64.0,48.0,29.92,SW,219,3.0,3.0,56,0.00,,,0.00,443.000000,,2013-05-08 14:42:00,
2013-05-08 10:52:00,64.0,48.0,29.92,SW,219,3.0,3.0,56,0.00,,,0.00,443.000000,,2013-05-08 14:52:00,
2013-05-08 11:02:00,64.0,48.0,29.92,SW,219,3.0,3.0,56,0.00,,,0.00,443.000000,,2013-05-08 15:02:00,
2013-05-08 11:10:00,57.0,50.0,29.94,WNW,303,2.0,2.0,76,0.00,,,0.00,642.000000,,2013-05-08 15:10:00,
2013-05-08 11:42:00,57.0,50.0,29.94,WNW,303,2.0,2.0,76,0.00,,,0.00,642.000000,,2013-05-08 15:42:00,
2013-05-08 11:53:00,57.0,50.0,29.94,WNW,303,2.0,2.0,76,0.00,,,0.00,642.000000,,2013-05-08 15:53:00,
2013-05-08 12:03:00,57.0,50.0,29.94,WNW,303,2.0,2.0,76,0.00,,,0.00,642.000000,,2013-05-08 16:03:00,
2013-05-08 12:10:00,63.0,51.0,29.94,SSE,161,3.0,3.0,65,0.00,,,-99.99,112.000000,,2013-05-08 16:10:00,
2013-05-08 12:42:00,63.0,51.0,29.94,SSE,161,3.0,3.0,65,0.00,,,-99.99,112.000000,,2013-05-08 16:42:00,
2013-05-08 12:52:00,63.0,51.0,29.94,SSE,161,3.0,3.0,65,0.00,,,-99.99,112.000000,,2013-05-08 16:52:00,
2013-05-08 13:02:00,63.0,51.0,29.94,SSE,161,3.0,3.0,65,0.00,,,-99.99,112.000000,,2013-05-08 17:02:00,
2013-05-08 13:10:00,66.0,51.0,29.93,West,278,5.0,5.0,58,0.00,,,-99.99,448.000000,,2013-05-08 17:10:00,
2013-05-08 13:52:00,66.0,51.0,29.93,West,278,5.0,5.0,58,0.00,,,-99.99,448.000000,,2013-05-08 17:52:00,
2013-05-08 14:02:00,66.0,51.0,29.93,West,278,5.0,5.0,58,0.00,,,-99.99,448.000000,,2013-05-08 18:02:00,
2013-05-08 14:10:00,66.0,50.0,29.92,SSE,150,3.0,3.0,56,0.00,,,0.00,440.000000,,2013-05-08 18:10:00,
2013-05-08 14:42:00,66.0,50.0,29.92,SSE,150,3.0,3.0,56,0.00,,,0.00,440.000000,,2013-05-08 18:42:00,
2013-05-08 14:52:00,66.0,50.0,29.92,SSE,150,3.0,3.0,56,0.00,,,0.00,440.000000,,2013-05-08 18:52:00,
2013-05-08 15:01:00,66.0,50.0,29.92,SSE,150,3.0,3.0,56,0.00,,,0.00,440.000000,,2013-05-08 19:01:00,
2013-05-08 15:10:00,65.0,50.0,29.93,North,6,2.0,3.0,58,0.00,,,-99.99,468.000000,,2013-05-08 19:10:00,
2013-05-08 15:32:00,65.0,50.0,29.93,North,6,2.0,3.0,58,0.00,,,-99.99,468.000000,,2013-05-08 19:32:00,
2013-05-08 15:42:00,65.0,50.0,29.93,North,6,2.0,3.0,58,0.00,,,-99.99,468.000000,,2013-05-08 19:42:00,
2013-05-08 15:52:00,65.0,50.0,29.93,North,6,2.0,3.0,58,0.00,,,-99.99,468.000000,,2013-05-08 19:52:00,
2013-05-08 16:02:00,65.0,50.0,29.93,North,6,2.0,3.0,58,0.00,,,-99.99,468.000000,,2013-05-08 20:02:00,
2013-05-08 16:10:00,65.0,49.0,29.92,NW,320,2.0,3.0,57,0.00,,,0.00,241.000000,,2013-05-08 20:10:00,
2013-05-08 16:42:00,65.0,49.0,29.92,NW,320,2.0,3.0,57,0.00,,,0.00,241.000000,,2013-05-08 20:42:00,
2013-05-08 16:52:00,65.0,49.0,29.92,NW,320,2.0,3.0,57,0.00,,,0.00,241.000000,,2013-05-08 20:52:00,
2013-05-08 17:02:00,65.0,49.0,29.92,NW,320,2.0,3.0,57,0.00,,,0.00,241.000000,,2013-05-08 21:02:00,
2013-05-08 17:10:00,68.0,51.0,29.92,ESE,115,2.0,3.0,55,0.00,,,0.00,251.000000,,2013-05-08 21:10:00,
2013-05-08 17:33:00,68.0,51.0,29.92,ESE,115,2.0,3.0,55,0.00,,,0.00,251.000000,,2013-05-08 21:33:00,
2013-05-08 17:43:00,68.0,51.0,29.92,ESE,115,2.0,3.0,55,0.00,,,0.00,251.000000,,2013-05-08 21:43:00,
2013-05-08 17:53:00,68.0,51.0,29.92,ESE,115,2.0,3.0,55,0.00,,,0.00,251.000000,,2013-05-08 21:53:00,
2013-05-08 18:03:00,68.0,51.0,29.92,ESE,115,2.0,3.0,55,0.00,,,0.00,251.000000,,2013-05-08 22:03:00,
2013-05-08 18:10:00,64.0,50.0,29.93,NE,43,5.0,5.0,60,0.00,,,0.00,247.000000,,2013-05-08 22:10:00,
2013-05-08 18:33:00,64.0,50.0,29.93,NE,43,5.0,5.0,60,0.00,,,0.00,247.000000,,2013-05-08 22:33:00,
2013-05-08 18:42:00,64.0,50.0,29.93,NE,43,5.0,5.0,60,0.00,,,0.00,247.000000,,2013-05-08 22:42:00,
2013-05-08 18:53:00,64.0,50.0,29.93,NE,43,5.0,5.0,60,0.00,,,0.00,247.000000,,2013-05-08 22:53:00,
2013-05-08 19:02:00,64.0,50.0,29.93,NE,43,5.0,5.0,60,0.00,,,0.00,247.000000,,2013-05-08 23:02:00,
2013-05-08 19:10:00,60.0,51.0,29.93,NE,34,1.0,3.0,72,0.00,,,0.00,240.000000,,2013-05-08 23:10:00,
2013-05-08 19:33:00,60.0,51.0,29.93,NE,34,1.0,3.0,72,0.00,,,0.00,240.000000,,2013-05-08 23:33:00,
2013-05-08 19:42:00,60.0,51.0,29.93,NE,34,1.0,3.0,72,0.00,,,0.00,240.000000,,2013-05-08 23:42:00,
2013-05-08 19:53:00,60.0,51.0,29.93,NE,34,1.0,3.0,72,0.00,,,0.00,240.000000,,2013-05-08 23:53:00,
2013-05-08 20:02:00,60.0,51.0,29.93,NE,34,1.0,3.0,72,0.00,,,0.00,240.000000,,2013-05-09 00:02:00,
2013-05-08 21:10:00,53.0,51.0,29.96,SE,141,1.0,2.0,94,-99.99,,,0.00,48.000000,,2013-05-09 01:10:00,
2013-05-08 21:32:00,53.0,51.0,29.96,SE,141,1.0,2.0,94,-99.99,,,0.00,48.000000,,2013-05-09 01:32:00,
2013-05-08 21:42:00,53.0,51.0,29.96,SE,141,1.0,2.0,94,-99.99,,,0.00,48.000000,,2013-05-09 01:42:00,
2013-05-08 21:53:00,53.0,51.0,29.96,SE,141,1.0,2.0,94,-99.99,,,0.00,48.000000,,2013-05-09 01:53:00,
2013-05-08 22:02:00,53.0,51.0,29.96,SE,141,1.0,2.0,94,-99.99,,,0.00,48.000000,,2013-05-09 02:02:00,
2013-05-08 22:10:00,51.0,50.0,29.98,ENE,61,0.0,1.0,97,0.00,,,0.00,0.000000,,2013-05-09 02:10:00,
2013-05-08 23:02:00,51.0,50.0,29.98,ENE,61,0.0,1.0,97,0.00,,,0.00,0.000000,,2013-05-09 03:02:00,
2013-05-08 23:10:00,52.0,51.0,30.00,NE,42,1.0,1.0,97,0.00,,,0.00,0.000000,,2013-05-09 03:10:00,
2013-05-08 23:43:00,52.0,51.0,30.00,NE,42,1.0,1.0,97,0.00,,,0.00,0.000000,,2013-05-09 03:43:00,
2013-05-08 23:53:00,52.0,51.0,30.00,NE,42,1.0,1.0,97,0.00,,,0.00,0.000000,,2013-05-09 03:53:00,